Time,TemperatureF,DewpointF,PressureIn,WindDirection,WindDirectionDegrees,WindSpeedMPH,WindSpeedGustMPH,Humidity,HourlyPrecipIn,Conditions,Clouds,dailyrainin,SoftwareType,DateUTC
2013-01-20 00:01:00,46.9,37.3,29.65,North,0,0.0,0.0,69,0.00,,BKN,0.00,VWS V14.01,2013-01-20 06:01:00,
2013-01-20 00:06:00,46.8,37.5,29.65,North,0,0.0,0.0,70,0.00,,BKN,0.00,VWS V14.01,2013-01-20 06:06:00,
2013-01-20 00:11:00,46.8,37.5,29.65,North,0,0.0,0.0,70,0.00,,BKN,0.00,VWS V14.01,2013-01-20 06:11:00,
2013-01-20 00:16:00,46.6,37.3,29.65,North,0,0.0,0.0,70,0.00,,BKN,0.00,VWS V14.01,2013-01-20 06:16:00,
2013-01-20 00:22:00,46.4,37.2,29.65,North,0,0.0,0.0,70,0.00,,BKN,0.00,VWS V14.01,2013-01-20 06:22:00,
2013-01-20 00:27:00,46.4,37.2,29.65,North,0,0.0,0.0,70,0.00,,BKN,0.00,VWS V14.01,2013-01-20 06:27:00,
2013-01-20 00:32:00,46.0,36.8,29.65,North,0,0.0,0.0,70,0.00,,BKN,0.00,VWS V14.01,2013-01-20 06:32:00,
2013-01-20 00:37:00,45.9,37.0,29.65,North,0,0.0,0.0,71,0.00,,BKN,0.00,VWS V14.01,2013-01-20 06:37:00,
2013-01-20 00:42:00,45.9,37.0,29.65,North,0,0.0,0.0,71,0.00,,BKN,0.00,VWS V14.01,2013-01-20 06:42:00,
2013-01-20 00:48:00,45.7,36.8,29.65,North,0,0.0,0.0,71,0.00,,BKN,0.00,VWS V14.01,2013-01-20 06:48:00,
2013-01-20 00:53:00,45.7,36.8,29.65,North,0,0.0,0.0,71,0.00,,BKN,0.00,VWS V14.01,2013-01-20 06:53:00,
2013-01-20 00:58:00,45.5,36.7,29.65,North,0,0.0,0.0,71,0.00,,BKN,0.00,VWS V14.01,2013-01-20 06:58:00,
2013-01-20 01:03:00,45.3,36.5,29.65,North,0,0.0,0.0,71,0.00,,BKN,0.00,VWS V14.01,2013-01-20 07:03:00,
2013-01-20 01:08:00,45.3,36.5,29.65,North,0,0.0,0.0,71,0.00,,BKN,0.00,VWS V14.01,2013-01-20 07:08:00,
2013-01-20 01:13:00,45.3,36.5,29.65,North,0,0.0,0.0,71,0.00,,BKN,0.00,VWS V14.01,2013-01-20 07:13:00,
2013-01-20 01:18:00,45.1,36.3,29.65,North,0,0.0,0.0,71,0.00,,BKN,0.00,VWS V14.01,2013-01-20 07:18:00,
2013-01-20 01:23:00,45.1,36.3,29.65,North,0,0.0,0.0,71,0.00,,BKN,0.00,VWS V14.01,2013-01-20 07:23:00,
2013-01-20 01:29:00,45.1,36.3,29.65,North,0,0.0,0.0,71,0.00,,BKN,0.00,VWS V14.01,2013-01-20 07:29:00,
2013-01-20 01:34:00,45.0,36.1,29.65,North,0,0.0,0.0,71,0.00,,BKN,0.00,VWS V14.01,2013-01-20 07:34:00,
2013-01-20 01:39:00,44.8,36.0,29.65,North,0,0.0,0.0,71,0.00,,BKN,0.00,VWS V14.01,2013-01-20 07:39:00,
2013-01-20 01:44:00,44.8,36.0,29.65,North,0,0.0,0.0,71,0.00,,BKN,0.00,VWS V14.01,2013-01-20 07:44:00,
2013-01-20 01:49:00,44.6,35.8,29.65,North,0,0.0,0.0,71,0.00,,BKN,0.00,VWS V14.01,2013-01-20 07:49:00,
2013-01-20 01:54:00,44.6,36.2,29.65,North,0,0.0,0.0,72,0.00,,BKN,0.00,VWS V14.01,2013-01-20 07:54:00,
2013-01-20 01:59:00,44.6,36.2,29.65,North,0,0.0,0.0,72,0.00,,BKN,0.00,VWS V14.01,2013-01-20 07:59:00,
2013-01-20 02:04:00,44.6,36.2,29.65,North,0,0.0,0.0,72,0.00,,BKN,0.00,VWS V14.01,2013-01-20 08:04:00,
2013-01-20 02:09:00,44.2,35.8,29.65,North,0,0.0,0.0,72,0.00,,BKN,0.00,VWS V14.01,2013-01-20 08:09:00,
2013-01-20 02:15:00,44.2,35.8,29.65,North,0,0.0,0.0,72,0.00,,BKN,0.00,VWS V14.01,2013-01-20 08:15:00,
2013-01-20 02:19:00,44.1,35.6,29.65,North,0,0.0,0.0,72,0.00,,BKN,0.00,VWS V14.01,2013-01-20 08:19:00,
2013-01-20 02:25:00,44.1,35.6,29.65,North,0,0.0,0.0,72,0.00,,BKN,0.00,VWS V14.01,2013-01-20 08:25:00,
2013-01-20 02:30:00,43.9,35.5,29.65,North,0,0.0,0.0,72,0.00,,BKN,0.00,VWS V14.01,2013-01-20 08:30:00,
2013-01-20 02:35:00,43.7,35.3,29.65,North,0,0.0,0.0,72,0.00,,BKN,0.00,VWS V14.01,2013-01-20 08:35:00,
2013-01-20 02:40:00,43.7,35.3,29.65,North,0,0.0,0.0,72,0.00,,BKN,0.00,VWS V14.01,2013-01-20 08:40:00,
2013-01-20 02:45:00,43.5,35.1,29.65,North,0,0.0,0.0,72,0.00,,BKN,0.00,VWS V14.01,2013-01-20 08:45:00,
2013-01-20 02:50:00,43.5,35.1,29.65,North,0,0.0,0.0,72,0.00,,BKN,0.00,VWS V14.01,2013-01-20 08:50:00,
2013-01-20 02:55:00,43.5,35.1,29.65,North,0,0.0,0.0,72,0.00,,BKN,0.00,VWS V14.01,2013-01-20 08:55:00,
2013-01-20 03:00:00,43.3,34.9,29.65,North,0,0.0,0.0,72,0.00,,BKN,0.00,VWS V14.01,2013-01-20 09:00:00,
2013-01-20 03:05:00,43.3,34.9,29.65,North,0,0.0,0.0,72,0.00,,BKN,0.00,VWS V14.01,2013-01-20 09:05:00,
2013-01-20 03:11:00,43.2,34.8,29.65,North,0,0.0,0.0,72,0.00,,BKN,0.00,VWS V14.01,2013-01-20 09:11:00,
2013-01-20 03:16:00,43.0,34.6,29.65,North,0,0.0,0.0,72,0.00,,BKN,0.00,VWS V14.01,2013-01-20 09:16:00,
2013-01-20 03:21:00,43.0,34.6,29.65,North,0,0.0,0.0,72,0.00,,BKN,0.00,VWS V14.01,2013-01-20 09:21:00,
2013-01-20 03:26:00,43.0,34.9,29.65,North,0,0.0,0.0,73,0.00,,BKN,0.00,VWS V14.01,2013-01-20 09:26:00,
2013-01-20 03:31:00,42.8,34.8,29.62,North,0,0.0,0.0,73,0.00,,BKN,0.00,VWS V14.01,2013-01-20 09:31:00,
2013-01-20 03:36:00,42.8,34.8,29.62,North,0,0.0,0.0,73,0.00,,BKN,0.00,VWS V14.01,2013-01-20 09:36:00,
2013-01-20 03:41:00,42.8,34.8,29.62,North,0,0.0,0.0,73,0.00,,BKN,0.00,VWS V14.01,2013-01-20 09:41:00,
2013-01-20 03:46:00,42.6,34.6,29.62,North,0,0.0,0.0,73,0.00,,BKN,0.00,VWS V14.01,2013-01-20 09:46:00,
2013-01-20 03:51:00,42.6,34.6,29.62,North,0,0.0,0.0,73,0.00,,BKN,0.00,VWS V14.01,2013-01-20 09:51:00,
2013-01-20 03:57:00,42.4,34.4,29.62,North,0,0.0,0.0,73,0.00,,BKN,0.00,VWS V14.01,2013-01-20 09:57:00,
2013-01-20 04:02:00,42.4,34.4,29.62,North,0,0.0,0.0,73,0.00,,BKN,0.00,VWS V14.01,2013-01-20 10:02:00,
2013-01-20 04:07:00,42.3,34.2,29.62,North,0,0.0,0.0,73,0.00,,BKN,0.00,VWS V14.01,2013-01-20 10:07:00,
2013-01-20 04:12:00,42.3,34.2,29.62,North,0,0.0,0.0,73,0.00,,BKN,0.00,VWS V14.01,2013-01-20 10:12:00,
2013-01-20 04:17:00,42.1,34.1,29.62,North,0,0.0,0.0,73,0.00,,BKN,0.00,VWS V14.01,2013-01-20 10:17:00,
2013-01-20 04:22:00,42.1,34.1,29.62,North,0,0.0,0.0,73,0.00,,BKN,0.00,VWS V14.01,2013-01-20 10:22:00,
2013-01-20 04:27:00,41.9,33.9,29.62,North,0,0.0,0.0,73,0.00,,BKN,0.00,VWS V14.01,2013-01-20 10:27:00,
2013-01-20 04:33:00,41.9,34.2,29.62,North,0,0.0,0.0,74,0.00,,BKN,0.00,VWS V14.01,2013-01-20 10:33:00,
2013-01-20 04:38:00,41.7,34.1,29.62,North,0,0.0,0.0,74,0.00,,BKN,0.00,VWS V14.01,2013-01-20 10:38:00,
2013-01-20 04:43:00,41.7,34.1,29.62,North,0,0.0,0.0,74,0.00,,BKN,0.00,VWS V14.01,2013-01-20 10:43:00,
2013-01-20 04:48:00,41.7,34.1,29.62,North,0,0.0,0.0,74,0.00,,BKN,0.00,VWS V14.01,2013-01-20 10:48:00,
2013-01-20 04:53:00,41.5,33.9,29.62,North,0,0.0,0.0,74,0.00,,BKN,0.00,VWS V14.01,2013-01-20 10:53:00,
2013-01-20 04:58:00,41.5,33.9,29.62,North,0,0.0,0.0,74,0.00,,BKN,0.00,VWS V14.01,2013-01-20 10:58:00,
2013-01-20 05:03:00,41.4,33.7,29.62,North,0,0.0,0.0,74,0.00,,BKN,0.00,VWS V14.01,2013-01-20 11:03:00,
2013-01-20 05:08:00,41.2,33.5,29.62,North,0,0.0,0.0,74,0.00,,BKN,0.00,VWS V14.01,2013-01-20 11:08:00,
2013-01-20 05:13:00,41.2,33.5,29.62,North,0,0.0,0.0,74,0.00,,BKN,0.00,VWS V14.01,2013-01-20 11:13:00,
2013-01-20 05:18:00,41.2,33.5,29.62,North,0,0.0,0.0,74,0.00,,BKN,0.00,VWS V14.01,2013-01-20 11:18:00,
2013-01-20 05:23:00,41.2,33.5,29.62,North,0,0.0,0.0,74,0.00,,BKN,0.00,VWS V14.01,2013-01-20 11:23:00,
2013-01-20 05:29:00,41.2,33.5,29.62,North,0,0.0,0.0,74,0.00,,BKN,0.00,VWS V14.01,2013-01-20 11:29:00,
2013-01-20 05:34:00,41.0,33.4,29.62,North,0,0.0,0.0,74,0.00,,BKN,0.00,VWS V14.01,2013-01-20 11:34:00,
2013-01-20 05:39:00,41.0,33.4,29.62,North,0,0.0,0.0,74,0.00,,BKN,0.00,VWS V14.01,2013-01-20 11:39:00,
2013-01-20 05:44:00,41.0,33.4,29.62,North,0,0.0,0.0,74,0.00,,BKN,0.00,VWS V14.01,2013-01-20 11:44:00,
2013-01-20 05:49:00,40.8,33.5,29.62,North,0,0.0,0.0,75,0.00,,BKN,0.00,VWS V14.01,2013-01-20 11:49:00,
2013-01-20 05:54:00,40.8,33.5,29.62,North,0,0.0,0.0,75,0.00,,BKN,0.00,VWS V14.01,2013-01-20 11:54:00,
2013-01-20 06:00:00,40.6,33.3,29.62,North,0,0.0,0.0,75,0.00,,BKN,0.00,VWS V14.01,2013-01-20 12:00:00,
2013-01-20 06:05:00,40.6,33.3,29.62,North,0,0.0,0.0,75,0.00,,BKN,0.00,VWS V14.01,2013-01-20 12:05:00,
2013-01-20 06:10:00,40.6,33.3,29.62,North,0,0.0,0.0,75,0.00,,BKN,0.00,VWS V14.01,2013-01-20 12:10:00,
2013-01-20 06:15:00,40.6,33.3,29.62,North,0,0.0,0.0,75,0.00,,BKN,0.00,VWS V14.01,2013-01-20 12:15:00,
2013-01-20 06:20:00,40.6,33.3,29.62,North,0,0.0,0.0,75,0.00,,BKN,0.00,VWS V14.01,2013-01-20 12:20:00,
2013-01-20 06:25:00,40.5,33.2,29.62,North,0,0.0,0.0,75,0.00,,BKN,0.00,VWS V14.01,2013-01-20 12:25:00,
2013-01-20 06:31:00,40.5,33.2,29.65,North,0,0.0,0.0,75,0.00,,BKN,0.00,VWS V14.01,2013-01-20 12:31:00,
2013-01-20 06:36:00,40.5,33.2,29.65,North,0,0.0,0.0,75,0.00,,BKN,0.00,VWS V14.01,2013-01-20 12:36:00,
2013-01-20 06:41:00,40.3,33.0,29.65,North,0,0.0,0.0,75,0.00,,BKN,0.00,VWS V14.01,2013-01-20 12:41:00,
2013-01-20 06:46:00,40.3,33.0,29.65,North,0,0.0,0.0,75,0.00,,BKN,0.00,VWS V14.01,2013-01-20 12:46:00,
2013-01-20 06:52:00,40.3,33.0,29.65,North,0,0.0,0.0,75,0.00,,BKN,0.00,VWS V14.01,2013-01-20 12:52:00,
2013-01-20 06:57:00,40.1,32.8,29.65,North,0,0.0,0.0,75,0.00,,BKN,0.00,VWS V14.01,2013-01-20 12:57:00,
2013-01-20 07:02:00,40.1,32.8,29.65,North,0,0.0,0.0,75,0.00,,BKN,0.00,VWS V14.01,2013-01-20 13:02:00,
2013-01-20 07:07:00,40.1,32.8,29.65,North,0,0.0,0.0,75,0.00,,BKN,0.00,VWS V14.01,2013-01-20 13:07:00,
2013-01-20 07:12:00,39.9,32.7,29.65,North,0,0.0,0.0,75,0.00,,BKN,0.00,VWS V14.01,2013-01-20 13:12:00,
2013-01-20 07:17:00,40.1,32.8,29.65,North,0,0.0,0.0,75,0.00,,BKN,0.00,VWS V14.01,2013-01-20 13:17:00,
2013-01-20 07:23:00,40.1,32.8,29.65,North,0,0.0,0.0,75,0.00,,BKN,0.00,VWS V14.01,2013-01-20 13:23:00,
2013-01-20 07:28:00,40.3,33.0,29.65,North,0,0.0,0.0,75,0.00,,BKN,0.00,VWS V14.01,2013-01-20 13:28:00,
2013-01-20 07:33:00,40.3,33.0,29.62,North,0,0.0,0.0,75,0.00,,BKN,0.00,VWS V14.01,2013-01-20 13:33:00,
2013-01-20 07:38:00,40.1,32.8,29.62,North,0,0.0,0.0,75,0.00,,BKN,0.00,VWS V14.01,2013-01-20 13:38:00,
2013-01-20 07:43:00,39.9,32.7,29.62,North,0,0.0,0.0,75,0.00,,BKN,0.00,VWS V14.01,2013-01-20 13:43:00,
2013-01-20 07:48:00,39.9,32.7,29.65,North,0,0.0,0.0,75,0.00,,BKN,0.00,VWS V14.01,2013-01-20 13:48:00,
2013-01-20 07:53:00,39.9,32.7,29.65,North,0,0.0,0.0,75,0.00,,BKN,0.00,VWS V14.01,2013-01-20 13:53:00,
2013-01-20 07:58:00,39.9,32.7,29.65,North,0,0.0,0.0,75,0.00,,BKN,0.00,VWS V14.01,2013-01-20 13:58:00,
2013-01-20 08:03:00,39.9,32.7,29.62,North,0,0.0,0.0,75,0.00,,BKN,0.00,VWS V14.01,2013-01-20 14:03:00,
2013-01-20 08:08:00,39.7,32.5,29.62,North,0,0.0,0.0,75,0.00,,BKN,0.00,VWS V14.01,2013-01-20 14:08:00,
2013-01-20 08:13:00,39.9,32.7,29.62,North,0,0.0,0.0,75,0.00,,BKN,0.00,VWS V14.01,2013-01-20 14:13:00,
2013-01-20 08:18:00,40.3,33.3,29.62,North,0,0.0,0.0,76,0.00,,BKN,0.00,VWS V14.01,2013-01-20 14:18:00,
2013-01-20 08:23:00,40.6,33.7,29.62,North,0,0.0,0.0,76,0.00,,BKN,0.00,VWS V14.01,2013-01-20 14:23:00,
2013-01-20 08:28:00,41.0,34.0,29.62,North,0,0.0,0.0,76,0.00,,BKN,0.00,VWS V14.01,2013-01-20 14:28:00,
2013-01-20 08:34:00,41.4,34.4,29.62,North,0,0.0,0.0,76,0.00,,BKN,0.00,VWS V14.01,2013-01-20 14:34:00,
2013-01-20 08:39:00,41.9,34.9,29.62,North,0,0.0,0.0,76,0.00,,BKN,0.00,VWS V14.01,2013-01-20 14:39:00,
2013-01-20 08:44:00,42.3,35.2,29.65,North,0,0.0,0.0,76,0.00,,BKN,0.00,VWS V14.01,2013-01-20 14:44:00,
2013-01-20 08:49:00,42.8,35.8,29.65,North,0,0.0,0.0,76,0.00,,BKN,0.00,VWS V14.01,2013-01-20 14:49:00,
2013-01-20 08:54:00,43.3,36.6,29.65,North,0,0.0,0.0,77,0.00,,BKN,0.00,VWS V14.01,2013-01-20 14:54:00,
2013-01-20 08:59:00,43.7,37.0,29.65,North,0,0.0,0.0,77,0.00,,BKN,0.00,VWS V14.01,2013-01-20 14:59:00,
2013-01-20 09:04:00,44.1,37.7,29.65,North,0,0.0,0.0,78,0.00,,BKN,0.00,VWS V14.01,2013-01-20 15:04:00,
2013-01-20 09:09:00,44.6,38.2,29.65,North,0,0.0,0.0,78,0.00,,BKN,0.00,VWS V14.01,2013-01-20 15:09:00,
2013-01-20 09:14:00,45.0,38.8,29.65,North,0,0.0,0.0,79,0.00,,BKN,0.00,VWS V14.01,2013-01-20 15:14:00,
2013-01-20 09:19:00,45.5,39.7,29.65,North,0,0.0,0.0,80,0.00,,BKN,0.00,VWS V14.01,2013-01-20 15:19:00,
2013-01-20 09:24:00,46.0,40.2,29.65,North,0,0.0,0.0,80,0.00,,BKN,0.00,VWS V14.01,2013-01-20 15:24:00,
2013-01-20 09:29:00,46.4,40.6,29.65,North,0,0.0,0.0,80,0.00,,BKN,0.00,VWS V14.01,2013-01-20 15:29:00,
2013-01-20 09:35:00,47.1,41.6,29.65,North,0,0.0,0.0,81,0.00,,BKN,0.00,VWS V14.01,2013-01-20 15:35:00,
2013-01-20 09:40:00,47.7,42.4,29.65,North,0,0.0,0.0,82,0.00,,BKN,0.00,VWS V14.01,2013-01-20 15:40:00,
2013-01-20 09:45:00,48.2,43.0,29.65,North,0,0.0,0.0,82,0.00,,BKN,0.00,VWS V14.01,2013-01-20 15:45:00,
2013-01-20 09:50:00,48.6,43.3,29.65,North,0,0.0,0.0,82,0.00,,BKN,0.00,VWS V14.01,2013-01-20 15:50:00,
2013-01-20 09:55:00,48.9,43.7,29.65,North,0,0.0,0.0,82,0.00,,BKN,0.00,VWS V14.01,2013-01-20 15:55:00,
2013-01-20 10:00:00,49.3,43.7,29.65,North,0,0.0,0.0,81,0.00,,BKN,0.00,VWS V14.01,2013-01-20 16:00:00,
2013-01-20 10:05:00,49.8,43.9,29.65,North,0,0.0,0.0,80,0.00,,BKN,0.00,VWS V14.01,2013-01-20 16:05:00,
2013-01-20 10:10:00,50.2,43.6,29.65,North,0,0.0,0.0,78,0.00,,BKN,0.00,VWS V14.01,2013-01-20 16:10:00,
2013-01-20 10:16:00,50.9,44.0,29.65,North,0,0.0,0.0,77,0.00,,BKN,0.00,VWS V14.01,2013-01-20 16:16:00,
2013-01-20 10:21:00,51.4,44.5,29.65,North,0,0.0,0.0,77,0.00,,BKN,0.00,VWS V14.01,2013-01-20 16:21:00,
2013-01-20 10:26:00,52.0,44.3,29.65,North,0,0.0,0.0,75,0.00,,BKN,0.00,VWS V14.01,2013-01-20 16:26:00,
2013-01-20 10:31:00,52.3,44.0,29.65,North,0,0.0,0.0,73,0.00,,BKN,0.00,VWS V14.01,2013-01-20 16:31:00,
2013-01-20 10:36:00,52.9,43.8,29.65,North,0,0.0,0.0,71,0.00,,BKN,0.00,VWS V14.01,2013-01-20 16:36:00,
2013-01-20 10:41:00,53.2,44.1,29.65,North,0,0.0,0.0,71,0.00,,BKN,0.00,VWS V14.01,2013-01-20 16:41:00,
2013-01-20 10:47:00,53.6,44.1,29.65,North,0,0.0,0.0,70,0.00,,BKN,0.00,VWS V14.01,2013-01-20 16:47:00,
2013-01-20 10:52:00,54.0,43.3,29.65,North,0,0.0,0.0,67,0.00,,BKN,0.00,VWS V14.01,2013-01-20 16:52:00,
2013-01-20 10:57:00,54.3,43.2,29.65,North,0,0.0,0.0,66,0.00,,BKN,0.00,VWS V14.01,2013-01-20 16:57:00,
2013-01-20 11:02:00,55.0,43.9,29.65,North,0,0.0,0.0,66,0.00,,BKN,0.00,VWS V14.01,2013-01-20 17:02:00,
2013-01-20 11:07:00,55.4,43.4,29.65,North,0,0.0,0.0,64,0.00,,BKN,0.00,VWS V14.01,2013-01-20 17:07:00,
2013-01-20 11:12:00,55.8,43.0,29.65,North,0,0.0,0.0,62,0.00,,BKN,0.00,VWS V14.01,2013-01-20 17:12:00,
2013-01-20 11:18:00,55.9,42.3,29.65,North,0,0.0,0.0,60,0.00,,BKN,0.00,VWS V14.01,2013-01-20 17:18:00,
2013-01-20 11:23:00,56.3,42.2,29.65,North,0,0.0,0.0,59,0.00,,BKN,0.00,VWS V14.01,2013-01-20 17:23:00,
2013-01-20 11:28:00,56.8,41.8,29.65,North,0,0.0,0.0,57,0.00,,BKN,0.00,VWS V14.01,2013-01-20 17:28:00,
2013-01-20 11:33:00,57.2,41.7,29.65,North,0,0.0,0.0,56,0.00,,BKN,0.00,VWS V14.01,2013-01-20 17:33:00,
2013-01-20 11:38:00,57.4,41.4,29.65,North,0,0.0,0.0,55,0.00,,BKN,0.00,VWS V14.01,2013-01-20 17:38:00,
2013-01-20 11:43:00,57.9,41.4,29.65,North,0,0.0,0.0,54,0.00,,BKN,0.00,VWS V14.01,2013-01-20 17:43:00,
2013-01-20 11:49:00,58.6,41.6,29.65,North,0,0.0,0.0,53,0.00,,BKN,0.00,VWS V14.01,2013-01-20 17:49:00,
2013-01-20 11:54:00,59.2,40.6,29.65,North,0,0.0,0.0,50,0.00,,BKN,0.00,VWS V14.01,2013-01-20 17:54:00,
2013-01-20 11:59:00,59.5,40.9,29.62,North,0,0.0,0.0,50,0.00,,BKN,0.00,VWS V14.01,2013-01-20 17:59:00,
2013-01-20 12:04:00,60.1,40.9,29.62,North,0,0.0,0.0,49,0.00,,BKN,0.00,VWS V14.01,2013-01-20 18:04:00,
2013-01-20 12:09:00,60.4,40.7,29.62,North,0,0.0,0.0,48,0.00,,BKN,0.00,VWS V14.01,2013-01-20 18:09:00,
2013-01-20 12:14:00,61.0,40.1,29.59,North,0,0.0,0.0,46,0.00,,BKN,0.00,VWS V14.01,2013-01-20 18:14:00,
2013-01-20 12:20:00,61.7,40.7,29.59,North,0,0.0,0.0,46,0.00,,BKN,0.00,VWS V14.01,2013-01-20 18:20:00,
2013-01-20 12:25:00,62.2,40.7,29.59,North,0,0.0,0.0,45,0.00,,BKN,0.00,VWS V14.01,2013-01-20 18:25:00,
2013-01-20 12:30:00,62.6,40.4,29.59,North,0,0.0,0.0,44,0.00,,BKN,0.00,VWS V14.01,2013-01-20 18:30:00,
2013-01-20 12:35:00,63.0,40.7,29.59,North,0,0.0,0.0,44,0.00,,BKN,0.00,VWS V14.01,2013-01-20 18:35:00,
2013-01-20 12:40:00,63.1,39.7,29.59,North,0,0.0,0.0,42,0.00,,BKN,0.00,VWS V14.01,2013-01-20 18:40:00,
2013-01-20 12:45:00,63.1,40.3,29.59,North,0,0.0,0.0,43,0.00,,BKN,0.00,VWS V14.01,2013-01-20 18:45:00,
2013-01-20 12:50:00,63.3,39.9,29.59,North,0,0.0,0.0,42,0.00,,BKN,0.00,VWS V14.01,2013-01-20 18:50:00,
2013-01-20 12:55:00,63.5,39.4,29.59,North,0,0.0,0.0,41,0.00,,BKN,0.00,VWS V14.01,2013-01-20 18:55:00,
2013-01-20 13:00:00,63.9,39.1,29.59,North,0,0.0,0.0,40,0.00,,BKN,0.00,VWS V14.01,2013-01-20 19:00:00,
2013-01-20 13:05:00,64.0,39.2,29.59,North,0,0.0,0.0,40,0.00,,BKN,0.00,VWS V14.01,2013-01-20 19:05:00,
2013-01-20 13:11:00,64.2,38.8,29.59,North,0,0.0,0.0,39,0.00,,BKN,0.00,VWS V14.01,2013-01-20 19:11:00,
2013-01-20 13:16:00,64.2,38.8,29.56,North,0,0.0,0.0,39,0.00,,BKN,0.00,VWS V14.01,2013-01-20 19:16:00,
2013-01-20 13:21:00,64.4,38.3,29.56,North,0,0.0,0.0,38,0.00,,BKN,0.00,VWS V14.01,2013-01-20 19:21:00,
2013-01-20 13:26:00,64.8,38.6,29.56,North,0,0.0,0.0,38,0.00,,BKN,0.00,VWS V14.01,2013-01-20 19:26:00,
2013-01-20 13:31:00,65.3,38.4,29.56,North,0,0.0,0.0,37,0.00,,BKN,0.00,VWS V14.01,2013-01-20 19:31:00,
2013-01-20 13:36:00,65.5,37.8,29.56,North,0,0.0,0.0,36,0.00,,BKN,0.00,VWS V14.01,2013-01-20 19:36:00,
2013-01-20 13:42:00,65.7,38.0,29.56,North,0,0.0,0.0,36,0.00,,BKN,0.00,VWS V14.01,2013-01-20 19:42:00,
2013-01-20 13:47:00,65.8,37.5,29.53,North,0,0.0,0.0,35,0.00,,BKN,0.00,VWS V14.01,2013-01-20 19:47:00,
2013-01-20 13:52:00,66.0,36.9,29.53,North,0,0.0,0.0,34,0.00,,BKN,0.00,VWS V14.01,2013-01-20 19:52:00,
2013-01-20 13:57:00,66.2,37.0,29.53,North,0,0.0,0.0,34,0.00,,BKN,0.00,VWS V14.01,2013-01-20 19:57:00,
2013-01-20 14:02:00,66.6,37.3,29.53,North,0,0.0,0.0,34,0.00,,BKN,0.00,VWS V14.01,2013-01-20 20:02:00,
2013-01-20 14:08:00,66.9,36.9,29.53,North,0,0.0,0.0,33,0.00,,BKN,0.00,VWS V14.01,2013-01-20 20:08:00,
2013-01-20 14:13:00,66.9,36.9,29.53,North,0,0.0,0.0,33,0.00,,BKN,0.00,VWS V14.01,2013-01-20 20:13:00,
2013-01-20 14:18:00,66.9,36.9,29.53,North,0,0.0,0.0,33,0.00,,BKN,0.00,VWS V14.01,2013-01-20 20:18:00,
2013-01-20 14:23:00,67.5,37.4,29.53,North,0,0.0,0.0,33,0.00,,BKN,0.00,VWS V14.01,2013-01-20 20:23:00,
2013-01-20 14:28:00,67.6,37.5,29.53,North,0,0.0,0.0,33,0.00,,BKN,0.00,VWS V14.01,2013-01-20 20:28:00,
2013-01-20 14:33:00,67.6,37.5,29.53,North,0,0.0,0.0,33,0.00,,BKN,0.00,VWS V14.01,2013-01-20 20:33:00,
2013-01-20 14:38:00,67.6,37.5,29.53,North,0,0.0,0.0,33,0.00,,BKN,0.00,VWS V14.01,2013-01-20 20:38:00,
2013-01-20 14:44:00,67.6,37.5,29.53,North,0,0.0,0.0,33,0.00,,BKN,0.00,VWS V14.01,2013-01-20 20:44:00,
2013-01-20 14:49:00,67.6,38.3,29.53,North,0,0.0,0.0,34,0.00,,BKN,0.00,VWS V14.01,2013-01-20 20:49:00,
2013-01-20 14:54:00,67.8,38.5,29.53,North,0,0.0,0.0,34,0.00,,BKN,0.00,VWS V14.01,2013-01-20 20:54:00,
2013-01-20 14:59:00,68.0,37.8,29.53,North,0,0.0,0.0,33,0.00,,BKN,0.00,VWS V14.01,2013-01-20 20:59:00,
2013-01-20 15:04:00,68.2,38.8,29.53,North,0,0.0,0.0,34,0.00,,BKN,0.00,VWS V14.01,2013-01-20 21:04:00,
2013-01-20 15:09:00,68.2,38.0,29.53,North,0,0.0,0.0,33,0.00,,BKN,0.00,VWS V14.01,2013-01-20 21:09:00,
2013-01-20 15:14:00,68.2,38.8,29.53,North,0,0.0,0.0,34,0.00,,BKN,0.00,VWS V14.01,2013-01-20 21:14:00,
2013-01-20 15:19:00,68.4,38.2,29.53,North,0,0.0,0.0,33,0.00,,BKN,0.00,VWS V14.01,2013-01-20 21:19:00,
2013-01-20 15:24:00,68.2,38.0,29.53,North,0,0.0,0.0,33,0.00,,BKN,0.00,VWS V14.01,2013-01-20 21:24:00,
2013-01-20 15:29:00,68.2,38.0,29.50,North,0,0.0,0.0,33,0.00,,BKN,0.00,VWS V14.01,2013-01-20 21:29:00,
2013-01-20 15:34:00,68.4,38.2,29.50,North,0,0.0,0.0,33,0.00,,BKN,0.00,VWS V14.01,2013-01-20 21:34:00,
2013-01-20 15:39:00,68.4,38.2,29.50,North,0,0.0,0.0,33,0.00,,BKN,0.00,VWS V14.01,2013-01-20 21:39:00,
2013-01-20 15:44:00,68.2,38.0,29.50,North,0,0.0,0.0,33,0.00,,BKN,0.00,VWS V14.01,2013-01-20 21:44:00,
2013-01-20 15:50:00,68.2,38.0,29.50,North,0,0.0,0.0,33,0.00,,BKN,0.00,VWS V14.01,2013-01-20 21:50:00,
2013-01-20 15:55:00,68.2,37.2,29.50,North,0,0.0,0.0,32,0.00,,BKN,0.00,VWS V14.01,2013-01-20 21:55:00,
2013-01-20 16:00:00,68.0,37.1,29.50,North,0,0.0,0.0,32,0.00,,BKN,0.00,VWS V14.01,2013-01-20 22:00:00,
2013-01-20 16:05:00,68.0,37.1,29.50,North,0,0.0,0.0,32,0.00,,BKN,0.00,VWS V14.01,2013-01-20 22:05:00,
2013-01-20 16:10:00,68.0,37.1,29.50,North,0,0.0,0.0,32,0.00,,BKN,0.00,VWS V14.01,2013-01-20 22:10:00,
2013-01-20 16:15:00,67.8,37.7,29.50,North,0,0.0,0.0,33,0.00,,BKN,0.00,VWS V14.01,2013-01-20 22:15:00,
2013-01-20 16:20:00,67.6,37.5,29.50,North,0,0.0,0.0,33,0.00,,BKN,0.00,VWS V14.01,2013-01-20 22:20:00,
2013-01-20 16:25:00,67.6,37.5,29.50,North,0,0.0,0.0,33,0.00,,BKN,0.00,VWS V14.01,2013-01-20 22:25:00,
2013-01-20 16:30:00,67.5,37.4,29.50,North,0,0.0,0.0,33,0.00,,BKN,0.00,VWS V14.01,2013-01-20 22:30:00,
2013-01-20 16:35:00,67.3,37.2,29.50,North,0,0.0,0.0,33,0.00,,BKN,0.00,VWS V14.01,2013-01-20 22:35:00,
2013-01-20 16:40:00,67.3,37.2,29.50,North,0,0.0,0.0,33,0.00,,BKN,0.00,VWS V14.01,2013-01-20 22:40:00,
2013-01-20 16:45:00,67.3,35.6,29.50,North,0,0.0,0.0,31,0.00,,BKN,0.00,VWS V14.01,2013-01-20 22:45:00,
2013-01-20 16:50:00,67.1,35.5,29.50,North,0,0.0,0.0,31,0.00,,BKN,0.00,VWS V14.01,2013-01-20 22:50:00,
2013-01-20 16:56:00,66.9,34.5,29.50,North,0,0.0,0.0,30,0.00,,BKN,0.00,VWS V14.01,2013-01-20 22:56:00,
2013-01-20 17:01:00,66.7,31.7,29.50,North,0,0.0,0.0,27,0.00,,BKN,0.00,VWS V14.01,2013-01-20 23:01:00,
2013-01-20 17:06:00,66.6,31.6,29.50,North,0,0.0,0.0,27,0.00,,BKN,0.00,VWS V14.01,2013-01-20 23:06:00,
2013-01-20 17:11:00,66.4,31.4,29.50,North,0,0.0,0.0,27,0.00,,BKN,0.00,VWS V14.01,2013-01-20 23:11:00,
2013-01-20 17:17:00,66.0,32.0,29.50,North,0,0.0,0.0,28,0.00,,BKN,0.00,VWS V14.01,2013-01-20 23:17:00,
2013-01-20 17:22:00,65.7,31.7,29.50,North,0,0.0,0.0,28,0.00,,BKN,0.00,VWS V14.01,2013-01-20 23:22:00,
2013-01-20 17:27:00,65.3,32.3,29.50,North,0,0.0,0.0,29,0.00,,BKN,0.00,VWS V14.01,2013-01-20 23:27:00,
2013-01-20 17:32:00,64.9,32.0,29.50,North,0,0.0,0.0,29,0.00,,BKN,0.00,VWS V14.01,2013-01-20 23:32:00,
2013-01-20 17:37:00,64.6,32.5,29.50,North,0,0.0,0.0,30,0.00,,BKN,0.00,VWS V14.01,2013-01-20 23:37:00,
2013-01-20 17:42:00,64.2,32.2,29.50,North,0,0.0,0.0,30,0.00,,BKN,0.00,VWS V14.01,2013-01-20 23:42:00,
2013-01-20 17:47:00,63.7,32.5,29.53,North,0,0.0,0.0,31,0.00,,BKN,0.00,VWS V14.01,2013-01-20 23:47:00,
2013-01-20 17:52:00,63.1,32.0,29.53,North,0,0.0,0.0,31,0.00,,BKN,0.00,VWS V14.01,2013-01-20 23:52:00,
2013-01-20 17:57:00,62.6,33.1,29.53,North,0,0.0,0.0,33,0.00,,BKN,0.00,VWS V14.01,2013-01-20 23:57:00,
2013-01-20 18:02:00,62.2,33.5,29.53,North,0,0.0,0.0,34,0.00,,BKN,0.00,VWS V14.01,2013-01-21 00:02:00,
2013-01-20 18:08:00,61.9,33.2,29.53,North,0,0.0,0.0,34,0.00,,BKN,0.00,VWS V14.01,2013-01-21 00:08:00,
2013-01-20 18:13:00,61.5,32.9,29.53,North,0,0.0,0.0,34,0.00,,BKN,0.00,VWS V14.01,2013-01-21 00:13:00,
2013-01-20 18:18:00,61.2,32.6,29.53,North,0,0.0,0.0,34,0.00,,BKN,0.00,VWS V14.01,2013-01-21 00:18:00,
2013-01-20 18:23:00,60.8,33.0,29.53,North,0,0.0,0.0,35,0.00,,BKN,0.00,VWS V14.01,2013-01-21 00:23:00,
2013-01-20 18:28:00,60.4,32.7,29.53,North,0,0.0,0.0,35,0.00,,BKN,0.00,VWS V14.01,2013-01-21 00:28:00,
2013-01-20 18:33:00,60.3,32.5,29.53,North,0,0.0,0.0,35,0.00,,BKN,0.00,VWS V14.01,2013-01-21 00:33:00,
2013-01-20 18:38:00,59.9,32.9,29.53,North,0,0.0,0.0,36,0.00,,BKN,0.00,VWS V14.01,2013-01-21 00:38:00,
2013-01-20 18:43:00,59.5,32.6,29.53,North,0,0.0,0.0,36,0.00,,BKN,0.00,VWS V14.01,2013-01-21 00:43:00,
2013-01-20 18:48:00,59.4,32.4,29.53,North,0,0.0,0.0,36,0.00,,BKN,0.00,VWS V14.01,2013-01-21 00:48:00,
2013-01-20 18:54:00,59.0,32.8,29.53,North,0,0.0,0.0,37,0.00,,BKN,0.00,VWS V14.01,2013-01-21 00:54:00,
2013-01-20 18:59:00,58.8,32.6,29.53,North,0,0.0,0.0,37,0.00,,BKN,0.00,VWS V14.01,2013-01-21 00:59:00,
2013-01-20 19:04:00,58.5,33.0,29.53,North,0,0.0,0.0,38,0.00,,BKN,0.00,VWS V14.01,2013-01-21 01:04:00,
2013-01-20 19:09:00,58.3,32.8,29.53,North,0,0.0,0.0,38,0.00,,BKN,0.00,VWS V14.01,2013-01-21 01:09:00,
2013-01-20 19:14:00,57.9,32.5,29.53,North,0,0.0,0.0,38,0.00,,BKN,0.00,VWS V14.01,2013-01-21 01:14:00,
2013-01-20 19:19:00,57.7,33.0,29.53,North,0,0.0,0.0,39,0.00,,BKN,0.00,VWS V14.01,2013-01-21 01:19:00,
2013-01-20 19:24:00,57.6,32.8,29.53,North,0,0.0,0.0,39,0.00,,BKN,0.00,VWS V14.01,2013-01-21 01:24:00,
2013-01-20 19:29:00,57.4,32.7,29.53,North,0,0.0,0.0,39,0.00,,BKN,0.00,VWS V14.01,2013-01-21 01:29:00,
2013-01-20 19:34:00,57.0,33.0,29.53,North,0,0.0,0.0,40,0.00,,BKN,0.00,VWS V14.01,2013-01-21 01:34:00,
2013-01-20 19:39:00,56.8,33.4,29.53,North,0,0.0,0.0,41,0.00,,BKN,0.00,VWS V14.01,2013-01-21 01:39:00,
2013-01-20 19:45:00,56.7,33.2,29.53,North,0,0.0,0.0,41,0.00,,BKN,0.00,VWS V14.01,2013-01-21 01:45:00,
2013-01-20 19:50:00,56.5,33.1,29.53,North,0,0.0,0.0,41,0.00,,BKN,0.00,VWS V14.01,2013-01-21 01:50:00,
2013-01-20 19:55:00,56.3,32.9,29.53,North,0,0.0,0.0,41,0.00,,BKN,0.00,VWS V14.01,2013-01-21 01:55:00,
2013-01-20 20:00:00,55.9,33.2,29.53,North,0,0.0,0.0,42,0.00,,BKN,0.00,VWS V14.01,2013-01-21 02:00:00,
2013-01-20 20:05:00,55.8,33.0,29.53,North,0,0.0,0.0,42,0.00,,BKN,0.00,VWS V14.01,2013-01-21 02:05:00,
2013-01-20 20:10:00,55.2,33.1,29.53,North,0,0.0,0.0,43,0.00,,BKN,0.00,VWS V14.01,2013-01-21 02:10:00,
2013-01-20 20:15:00,54.7,33.8,29.53,North,0,0.0,0.0,45,0.00,,BKN,0.00,VWS V14.01,2013-01-21 02:15:00,
2013-01-20 20:20:00,54.3,34.0,29.53,North,0,0.0,0.0,46,0.00,,BKN,0.00,VWS V14.01,2013-01-21 02:20:00,
2013-01-20 20:26:00,54.0,33.7,29.53,North,0,0.0,0.0,46,0.00,,BKN,0.00,VWS V14.01,2013-01-21 02:26:00,
2013-01-20 20:31:00,53.8,33.5,29.53,North,0,0.0,0.0,46,0.00,,BKN,0.00,VWS V14.01,2013-01-21 02:31:00,
2013-01-20 20:36:00,53.6,33.9,29.53,North,0,0.0,0.0,47,0.00,,BKN,0.00,VWS V14.01,2013-01-21 02:36:00,
2013-01-20 20:41:00,53.6,34.4,29.53,North,0,0.0,0.0,48,0.00,,BKN,0.00,VWS V14.01,2013-01-21 02:41:00,
2013-01-20 20:47:00,54.5,36.8,29.53,North,0,0.0,0.0,51,0.00,,BKN,0.00,VWS V14.01,2013-01-21 02:47:00,
2013-01-20 20:52:00,54.3,37.6,29.53,North,0,0.0,0.0,53,0.00,,BKN,0.00,VWS V14.01,2013-01-21 02:52:00,
2013-01-20 20:57:00,54.1,37.9,29.53,North,0,0.0,0.0,54,0.00,,BKN,0.00,VWS V14.01,2013-01-21 02:57:00,
2013-01-20 21:02:00,53.8,37.5,29.53,North,0,0.0,0.0,54,0.00,,BKN,0.00,VWS V14.01,2013-01-21 03:02:00,
2013-01-20 21:07:00,53.4,37.2,29.53,North,0,0.0,0.0,54,0.00,,BKN,0.00,VWS V14.01,2013-01-21 03:07:00,
2013-01-20 21:12:00,53.2,36.6,29.53,North,0,0.0,0.0,53,0.00,,BKN,0.00,VWS V14.01,2013-01-21 03:12:00,
2013-01-20 21:17:00,53.2,36.6,29.56,North,0,0.0,0.0,53,0.00,,BKN,0.00,VWS V14.01,2013-01-21 03:17:00,
2013-01-20 21:22:00,53.4,36.7,29.56,North,0,0.0,0.0,53,0.00,,BKN,0.00,VWS V14.01,2013-01-21 03:22:00,
2013-01-20 21:27:00,53.2,36.1,29.56,North,0,0.0,0.0,52,0.00,,BKN,0.00,VWS V14.01,2013-01-21 03:27:00,
2013-01-20 21:32:00,52.9,35.3,29.56,North,0,0.0,0.0,51,0.00,,BKN,0.00,VWS V14.01,2013-01-21 03:32:00,
2013-01-20 21:38:00,52.3,34.3,29.56,North,0,0.0,0.0,50,0.00,,BKN,0.00,VWS V14.01,2013-01-21 03:38:00,
2013-01-20 21:43:00,51.8,33.8,29.56,North,0,0.0,0.0,50,0.00,,BKN,0.00,VWS V14.01,2013-01-21 03:43:00,
2013-01-20 21:48:00,51.4,33.9,29.56,North,0,0.0,0.0,51,0.00,,BKN,0.00,VWS V14.01,2013-01-21 03:48:00,
2013-01-20 21:53:00,51.3,33.8,29.56,North,0,0.0,0.0,51,0.00,,BKN,0.00,VWS V14.01,2013-01-21 03:53:00,
2013-01-20 21:58:00,50.9,33.4,29.56,North,0,0.0,0.0,51,0.00,,BKN,0.00,VWS V14.01,2013-01-21 03:58:00,
2013-01-20 22:03:00,50.7,33.8,29.56,North,0,0.0,0.0,52,0.00,,BKN,0.00,VWS V14.01,2013-01-21 04:03:00,
2013-01-20 22:08:00,50.5,33.6,29.56,North,0,0.0,0.0,52,0.00,,BKN,0.00,VWS V14.01,2013-01-21 04:08:00,
2013-01-20 22:14:00,50.4,33.4,29.56,North,0,0.0,0.0,52,0.00,,BKN,0.00,VWS V14.01,2013-01-21 04:14:00,
2013-01-20 22:19:00,50.2,33.2,29.56,North,0,0.0,0.0,52,0.00,,BKN,0.00,VWS V14.01,2013-01-21 04:19:00,
2013-01-20 22:24:00,50.0,33.6,29.56,North,0,0.0,0.0,53,0.00,,BKN,0.00,VWS V14.01,2013-01-21 04:24:00,
2013-01-20 22:29:00,49.6,33.7,29.56,North,0,0.0,0.0,54,0.00,,BKN,0.00,VWS V14.01,2013-01-21 04:29:00,
2013-01-20 22:34:00,49.5,33.5,29.56,North,0,0.0,0.0,54,0.00,,BKN,0.00,VWS V14.01,2013-01-21 04:34:00,
2013-01-20 22:39:00,49.3,33.4,29.56,North,0,0.0,0.0,54,0.00,,BKN,0.00,VWS V14.01,2013-01-21 04:39:00,
2013-01-20 22:44:00,49.1,33.7,29.56,North,0,0.0,0.0,55,0.00,,BKN,0.00,VWS V14.01,2013-01-21 04:44:00,
2013-01-20 22:49:00,48.9,33.5,29.56,North,0,0.0,0.0,55,0.00,,BKN,0.00,VWS V14.01,2013-01-21 04:49:00,
2013-01-20 22:55:00,48.7,33.3,29.56,North,0,0.0,0.0,55,0.00,,BKN,0.00,VWS V14.01,2013-01-21 04:55:00,
2013-01-20 23:00:00,48.6,33.1,29.56,North,0,0.0,0.0,55,0.00,,BKN,0.00,VWS V14.01,2013-01-21 05:00:00,
2013-01-20 23:02:00,48.6,33.6,29.56,North,0,0.0,0.0,56,0.00,,BKN,0.00,VWS V14.01,2013-01-21 05:02:00,
2013-01-20 23:03:00,48.6,33.6,29.56,North,0,0.0,0.0,56,0.00,,BKN,0.00,VWS V14.01,2013-01-21 05:03:00,
2013-01-20 23:04:00,48.6,33.6,29.56,North,0,0.0,0.0,56,0.00,,BKN,0.00,VWS V14.01,2013-01-21 05:04:00,
2013-01-20 23:09:00,48.6,33.6,29.56,North,0,0.0,0.0,56,0.00,,BKN,0.00,VWS V14.01,2013-01-21 05:09:00,
2013-01-20 23:14:00,48.4,33.4,29.56,North,0,0.0,0.0,56,0.00,,BKN,0.00,VWS V14.01,2013-01-21 05:14:00,
2013-01-20 23:19:00,48.4,33.4,29.56,North,0,0.0,0.0,56,0.00,,BKN,0.00,VWS V14.01,2013-01-21 05:19:00,
2013-01-20 23:24:00,48.2,33.7,29.56,North,0,0.0,0.0,57,0.00,,BKN,0.00,VWS V14.01,2013-01-21 05:24:00,
2013-01-20 23:29:00,48.0,33.5,29.56,North,0,0.0,0.0,57,0.00,,BKN,0.00,VWS V14.01,2013-01-21 05:29:00,
2013-01-20 23:34:00,47.8,33.8,29.56,North,0,0.0,0.0,58,0.00,,BKN,0.00,VWS V14.01,2013-01-21 05:34:00,
2013-01-20 23:40:00,47.7,33.6,29.56,North,0,0.0,0.0,58,0.00,,BKN,0.00,VWS V14.01,2013-01-21 05:40:00,
2013-01-20 23:45:00,47.5,33.5,29.56,North,0,0.0,0.0,58,0.00,,BKN,0.00,VWS V14.01,2013-01-21 05:45:00,
2013-01-20 23:50:00,47.3,33.7,29.56,North,0,0.0,0.0,59,0.00,,BKN,0.00,VWS V14.01,2013-01-21 05:50:00,
2013-01-20 23:55:00,47.3,33.7,29.56,North,0,0.0,0.0,59,0.00,,BKN,0.00,VWS V14.01,2013-01-21 05:55:00,